Airfield :
LOGIN :

Register | Disclaimer

   EN    FR    IT 

 










Legend :    VFR   Marginal VFR   IFR   Intensive IFR   Very Intensive IFR
Visi :
Ceiling :
>= 8 km
>= 3000ft
5 to 8 km
1000 to 3000 ft
1500m to 5 km
500 to 1000 ft
800 to 1500m
200 to 500 ft
< 800m
< 200 ft
Symbols :   Thunderstorms  Fog  Heavy snow  Heavy precipitations  Wind > 20 kt
SIGMETs :     Misc.  Thunderstorms  Icing  Turbulence  Mountain Waves  Volcanic Ashes







- Airport Elevation : 239 ft
- IATA code : VRN


LIPX - Villafranca Int. Verona

CURRENT METAR :
  • 180720Z VRB01KT 4000 R04/1100N BR NSC 11/09 Q1021

EXPIRED METARs :
  • 180650Z VRB01KT 3000 R04/1300N BR NSC 09/08 Q1021
  • 180620Z 30001KT 4000 BR NSC 08/07 Q1020
  • 180550Z 32002KT 3000 BR NSC 07/06 Q1020
  • 180520Z 33002KT 4000 BR NSC 08/07 Q1020
  • 180450Z 31002KT 5000 BR NSC 08/07 Q1020

TAF TAF LIPX
Valid from the 18 at 06:00 until the 18 at 15:00 UTC


180500Z 1806/1815 VRB05KT 7000 NSC
No reported NOTAMs for that airfield.



MET'MAP, your aeronautical weather chart ! - Copyright ORBIFLY December 2007 - Disclaimer

ORBIFLY MET'MAP TEAM :

Programming & Development : Alexandra Zaïnal
Concept & Development : Baudouin d'Aumeries
Co-Development & Prog : Marc-Olivier Méhu
Technical & hardware support : Manuel Goepfert

Contact : metmap@orbifly.com




SOURCES & CREDITS :

   NOAA